Weather in Atamanovka

Russia / Zabaykalsky Krai     51°39′41″N   114°24′42″E
temp.,
°C
wind,
m/s
gust,
m/s
humid.,
%
clouds,
%
prec.,
mm/h
press.,
hPa
HPBL,
m
30 november, tue
tue3000:00−17w229621 0.0 102727
03:00−16w239778 0.0 102653
06:00−12wnw4118346 0.0 1024277
09:00−13wnw38875 0.0 1024178
12:00−10wnw5107710 0.0 1024665
15:00−8nw58653 0.0 1023723
18:00−15wnw22865 0.0 102614
21:00−17wnw22925 0.0 102815
1 december, wed
wed100:00−18wnw11945 0.0 102911
03:00−19w119736 0.0 10289
06:00−19wsw119944 0.0 102510
09:00−16wsw2299100 0.0 102249
12:00−9w2884100 0.0 1017300
15:00−4w61460100 0.0 1011878
18:00−5w51361100 0.0 1008373
21:00−3w91855100 0.0 1004976
2 december, thu
thu200:00−6nw9177328 0.1 10051287
03:00−9nw816572 0.1 1010810
06:00−11nw715611 0.0 1012693
09:00−12nw613600 0.0 1015500
12:00−11nw712585 0.0 1016823
15:00−10nw611555 0.0 1017955
18:00−14wnw36756 0.0 101973
21:00−16wnw238552 0.0 102158
3 december, fri
fri300:00−16w23885 0.0 102063
03:00−17wnw22895 0.0 102027
06:00−18wnw22935 0.0 102125
09:00−18wnw22945 0.0 102218
12:00−11wnw12755 0.0 1022148
15:00−8wnw137259 0.0 1020315
18:00−14wsw0093100 0.0 10239
21:00−13nne009688 0.0 10249
4 december, sat
sat400:00−15n119885 0.0 10249
03:00−15wnw009997 0.1 10249
06:00−16w1110093 0.0 10239
09:00−17wnw119981 0.0 10239
12:00−10sw118717 0.0 102083
15:00−7ssw11776 0.0 101787
18:00−13n119142 0.0 101910
21:00−14nne119321 0.0 10199